This demonstration page uses our WeatherBlox Daily Observations layout. Learn more.

Left ArrowRight Arrow

38.80484, -77.04692

Hourly Observations for February 12, 2016

Temp ( °F °C ) Dew Point ( °F °C ) Humidity (%) Winds ( mph kmh ) Pressure ( in mb ) Visibility ( mi km ) Precip ( " mm )
12:52 am 00:52 Clear 21 -6.1 2 -16.7 43 43 WNW 7 11 30.35 1028 10 16 0.00 0.00
1:52 am 01:52 Mostly Cloudy 21 -6.1 3 -16.1 45 45 WSW 6 9 30.34 1028 10 16 0.00 0.00
2:52 am 02:52 Mostly Cloudy 21 -6.1 3 -16.1 45 45 WNW 6 9 30.33 1027 10 16 0.00 0.00
3:52 am 03:52 Mostly Cloudy 20 -6.7 5 -15 52 52 N 7 11 30.33 1027 10 16 0.00 0.00
4:52 am 04:52 Mostly Cloudy 20 -6.7 3 -16.1 48 48 NW 3 6 30.32 1027 10 16 0.00 0.00
5:52 am 05:52 Mostly Cloudy 20 -6.7 5 -15 52 52 N 6 9 30.32 1027 10 16 0.00 0.00
6:52 am 06:52 Mostly Cloudy 20 -6.7 4 -15.6 50 50 N 5 7 30.32 1027 10 16 0.00 0.00
7:52 am 07:52 Mostly Cloudy 21 -6.1 3 -16.1 45 45 WSW 5 7 30.33 1027 10 16 0.00 0.00
8:52 am 08:52 Mostly Cloudy 23 -5 4 -15.6 44 44 VRB 3 6 30.32 1027 10 16 0.00 0.00
9:52 am 09:52 Cloudy 24 -4.4 5 -15 44 44 SSE 7 11 30.29 1026 10 16 0.00 0.00
10:52 am 10:52 Cloudy 25 -3.9 5 -15 42 42 SSE 5 7 30.26 1025 10 16 0.00 0.00
11:52 am 11:52 Cloudy 28 -2.2 6 -14.4 39 39 SSW 9 15 30.22 1023 10 16 0.00 0.00
12:52 pm 12:52 Cloudy 28 -2.2 7 -13.9 41 41 S 6 9 30.17 1022 10 16 0.00 0.00
1:52 pm 13:52 Cloudy 30 -1.1 9 -12.8 41 41 S 13 20 30.12 1020 10 16 0.00 0.00
2:52 pm 14:52 Cloudy 31 -0.6 10 -12.2 42 42 S 9 15 30.06 1018 10 16 0.00 0.00
3:52 pm 15:52 Cloudy 30 -1.1 10 -12.2 43 43 S 6 9 30.05 1018 10 16 0.00 0.00
4:52 pm 16:52 Cloudy 29 -1.7 10 -12.2 45 45 SSE 5 7 30.04 1017 10 16 0.00 0.00
5:52 pm 17:52 Mostly Cloudy 29 -1.7 12 -11.1 49 49 S 8 13 30.01 1016 10 16 0.00 0.00
6:52 pm 18:52 Mostly Cloudy 28 -2.2 12 -11.1 51 51 SSE 6 9 30.02 1017 10 16 0.00 0.00
7:52 pm 19:52 Mostly Cloudy 28 -2.2 13 -10.6 53 53 SSE 6 9 30.01 1016 10 16 0.00 0.00
8:52 pm 20:52 Cloudy 28 -2.2 13 -10.6 53 53 SSW 6 9 30.01 1016 10 16 0.00 0.00
9:52 pm 21:52 Cloudy 29 -1.7 12 -11.1 49 49 SW 6 9 30.02 1017 10 16 0.00 0.00
10:42 pm 22:42 Cloudy with Light Snow 28 -2 16 -9 59 59 W 10 17 30.03 1017 9 14 0.00 0.00
10:52 pm 22:52 Cloudy with Light Snow 28 -2.2 17 -8.3 63 63 WNW 10 17 30.03 1017 9 14 0.00 0.03
11:11 pm 23:11 Cloudy 28 -2.2 17 -8.3 63 63 WNW 6 9 30.03 1017 9 14 0.00 0.03
11:52 pm 23:52 Cloudy 28 -2.2 17 -8.3 63 63 WSW 6 9 30.02 1017 10 16 0.00 0.03

Powered by AerisWeather